[[{"header":{"parameterUnit":"m.s-1","parameterCategory":1,"la1":30.2991,"la2":30.254,"lo1":-89.0895,"lo2":-89.0444,"dy":0.0017,"dx":0.0017,"nx":28,"ny":28,"refTime":"2023-07-29T09:00:00:Z","depth":0,"parameterNumber":2,"parameterNumberName":"U-component_of_WINDS"},"data":[0,0,0,0,0,0,0,0,0,0,0,0,0,0,0,0,0,0,0,0,0,0,0,0,0,0,0,0,0,0,0,0,0,0,0,0,0,0,0,0,0,0,0,0,0,0,0,0,0,0,0,0,0,0,0,0,0,0,4.5279,4.528,0,4.5388,4.5389,4.539,4.531,4.5307,4.5303,4.53,4.5413,4.5419,4.5425,0,0,0,0,0,0,0,0,0,0,0,0,0,4.5004,4.5009,4.5279,4.528,4.5282,4.5388,4.5389,4.5391,4.5311,4.5307,4.5302,4.5298,4.5411,4.5418,4.5426,0,0,0,0,0,0,0,0,0,0,0,0,0,4.5119,4.5011,4.5279,4.5255,4.5254,4.5387,4.5389,4.5391,4.5312,4.5307,4.5301,4.5296,4.5409,4.5418,4.5427,4.5591,0,0,4.5456,4.546,0,0,0,0,0,0,0,0,4.5112,4.5129,4.5257,4.5257,4.5256,4.533,4.5333,4.5458,4.5313,4.529,4.53,4.5294,4.539,4.54,4.5432,4.5596,4.5601,4.5457,4.5462,4.5466,4.5469,0,0,0,0,0,0,0,4.5105,4.5124,4.5322,4.5259,4.5258,4.5239,4.5249,4.5357,4.5368,4.5291,4.5286,4.53,4.5388,4.5424,4.5435,4.5602,4.5456,4.5465,4.5471,4.5474,4.5906,4.5911,0,0,0,0,0,0,4.5099,4.5118,4.5318,4.5325,4.517,4.5248,4.526,4.5312,4.5367,4.537,4.5304,4.5296,4.541,4.5424,4.5438,4.5633,4.5466,4.5475,4.5481,4.59,4.5907,4.5913,0,0,0,0,0,0,4.5093,4.5117,4.5314,4.522,4.5244,4.5258,4.5317,4.5316,4.5351,4.5376,4.5378,4.5338,4.5406,4.5425,4.5553,4.5636,4.5479,4.5488,4.5893,4.5902,4.591,4.6026,0,0,0,0,0,0,4.5085,4.5116,4.5178,4.5222,4.5249,4.5427,4.5322,4.5322,4.5368,4.5358,4.5408,4.5412,4.5404,4.554,4.5563,4.5646,4.5495,4.5886,4.5897,4.5908,4.6014,4.6037,4.6057,0,0,0,0,0,4.5076,4.5206,4.5181,4.5206,4.5327,4.5432,4.5448,4.5435,4.5375,4.5437,4.5453,4.541,4.5624,4.5553,4.5579,4.5667,4.5881,4.5894,4.5907,4.6005,4.6033,4.6056,0,0,0,0,0,0,4.5172,4.5212,4.5184,4.5333,4.538,4.5418,4.5497,4.5465,4.553,4.5518,4.5501,4.5513,4.5648,4.567,4.5591,4.5828,4.5742,4.5761,4.5808,4.5835,4.5856,4.5848,4.5503,0,0,0,0,0,4.521,4.5292,4.5322,4.545,4.5475,4.5483,4.5528,4.5514,4.5562,4.5582,4.5607,4.5656,4.5734,4.5786,4.5859,4.6017,4.6027,4.609,4.6111,4.6128,4.6145,4.623,4.6259,4.5956,4.5956,4.5956,0,0,4.529,4.5322,4.5375,4.5471,4.5505,4.5591,4.55,4.5594,4.5657,4.5596,4.5719,4.574,4.5793,4.5937,4.6002,4.596,4.6231,4.6145,4.6159,4.6166,4.6247,4.6275,4.6301,4.5965,4.5964,4.5962,0,0,4.548,4.5512,4.5622,4.5659,4.5713,4.5716,4.5743,4.5787,4.5798,4.5921,4.5877,4.5952,4.6087,4.6127,4.6165,4.637,4.6333,4.6394,4.6504,4.6588,4.6612,4.6633,4.6706,4.6733,4.6411,4.6411,4.6411,0,4.5573,4.57,4.5683,4.5781,4.5825,4.5773,4.5884,4.5921,4.5996,4.6028,4.5979,4.6147,4.6179,4.6332,4.6382,4.6415,4.6445,4.6388,4.661,4.6631,4.665,4.672,4.6747,4.6418,4.6417,4.6416,4.6416,0,4.5811,4.59,4.5983,4.6056,4.6109,4.6213,4.6213,4.6269,4.6251,4.626,4.6386,4.6423,4.6502,4.6538,4.6521,4.6689,4.6661,4.6612,4.6525,4.6686,4.6751,4.6778,4.6428,4.6426,4.6424,4.6422,0,0,4.6065,4.6127,4.6158,4.6191,4.6246,4.6315,4.6417,4.6494,4.6542,4.6596,4.6681,4.6797,4.6751,4.6795,4.6782,4.6856,4.7016,4.6798,4.6798,4.6837,4.7203,4.724,4.7271,4.6992,4.6997,4.7001,4.7199,0,4.6257,4.6434,4.6423,4.659,4.6672,4.6624,4.6713,4.6757,4.6769,4.684,4.6853,4.6935,4.6869,4.6895,4.6965,4.6982,4.7089,4.6967,4.7072,4.7075,4.706,4.7305,4.7344,4.7529,4.7224,4.7228,4.7231,0,4.6505,4.6567,4.6743,4.6786,4.6819,4.69,4.697,4.7039,4.7088,4.7091,4.7139,4.7115,4.7218,4.713,4.7273,4.719,4.7232,4.7246,4.7253,4.7262,4.7163,4.7321,4.7587,4.7615,4.7271,4.7268,4.7265,0,4.6673,4.68,4.6921,4.695,4.7004,4.7061,4.7086,4.713,4.7177,4.7239,4.7269,4.7343,4.7383,4.744,4.7436,4.7372,4.7581,4.7492,4.7587,4.7588,4.7633,4.7631,4.7911,4.7661,4.7661,4.766,4.7659,0,4.6889,4.6998,4.6997,4.7071,4.7192,4.7178,4.7298,4.7317,4.7357,4.7434,4.7398,4.7472,4.7462,4.7536,4.7534,4.7653,4.7671,4.7677,4.7675,4.768,4.768,4.7708,4.7695,4.7667,4.7666,4.7664,4.7663,0,4.7096,4.71,4.7229,4.7268,4.7281,4.7369,4.7403,4.7474,4.7482,4.7581,4.7603,4.7617,4.7702,4.7704,4.7802,4.7801,4.7946,4.7929,4.7929,4.7926,4.8021,4.8012,4.8328,4.8369,4.8093,4.8096,4.8098,0,4.7234,4.7317,4.7366,4.7415,4.7443,4.7523,4.7571,4.756,4.7612,4.7674,4.7738,4.782,4.7885,4.8024,4.8043,4.8118,4.8103,4.8209,4.8114,4.8117,4.8105,4.81,4.8108,4.8227,4.8231,4.8233,4.8235,0,4.7479,4.7476,4.7546,4.7618,4.7676,4.7732,4.7783,4.7826,4.7821,4.7881,4.7968,4.8018,4.8118,4.8201,4.8273,4.8299,4.8268,4.8265,4.8291,4.8297,4.8293,4.8296,4.798,4.8258,4.8255,4.8254,4.8252,4.8251,4.7656,4.7727,4.7772,4.7852,4.7889,4.7938,4.8007,4.8023,4.8095,4.8176,4.8165,4.8262,4.8309,4.8403,4.8436,4.8512,4.8475,4.8513,4.8522,4.8532,4.8542,4.8281,4.8525,4.8524,4.8524,4.8523,4.8523,0,4.7898,4.7925,4.7998,4.8071,4.8134,4.8097,4.8152,4.8207,4.8293,4.8339,4.8404,4.8504,4.8583,4.8608,4.8685,4.8741,4.8728,4.8762,4.8758,4.8764,4.857,4.854,4.8771,4.8771,4.8771,4.8771,4.8771,4.8771,4.8032,4.815,4.8153,4.829,4.8316,4.841,4.8445,4.849,4.8527,4.864,4.8705,4.8721,4.8759,4.8839,4.891,4.8915,4.8945,4.8985,4.8985,4.8803,4.8778,4.8754,4.8726,4.8992,4.8992,4.9172,4.9174,4.9175]},{"header":{"parameterUnit":"m.s-1","parameterCategory":1,"la1":30.2991,"la2":30.254,"lo1":-89.0895,"lo2":-89.0444,"dy":0.0017,"dx":0.0017,"nx":28,"ny":28,"refTime":"2023-07-29T09:00:00:Z","depth":0,"parameterNumber":3,"parameterNumberName":"V-component_of_WINDS"},"data":[0,0,0,0,0,0,0,0,0,0,0,0,0,0,0,0,0,0,0,0,0,0,0,0,0,0,0,0,0,0,0,0,0,0,0,0,0,0,0,0,0,0,0,0,0,0,0,0,0,0,0,0,0,0,0,0,0,0,-0.6137,-0.6137,0,-0.6169,-0.6169,-0.617,-0.618,-0.618,-0.6179,-0.6179,-0.6211,-0.6212,-0.6213,0,0,0,0,0,0,0,0,0,0,0,0,0,-0.6084,-0.6085,-0.6137,-0.6137,-0.6138,-0.6169,-0.6169,-0.617,-0.618,-0.618,-0.6179,-0.6179,-0.6211,-0.6212,-0.6213,0,0,0,0,0,0,0,0,0,0,0,0,0,-0.6111,-0.6085,-0.6137,-0.6147,-0.6148,-0.6169,-0.6169,-0.617,-0.618,-0.618,-0.6179,-0.6179,-0.621,-0.6212,-0.6213,-0.6227,0,0,-0.6218,-0.6218,0,0,0,0,0,0,0,0,-0.6109,-0.6113,-0.6145,-0.6146,-0.6147,-0.617,-0.6162,-0.6189,-0.618,-0.6168,-0.6179,-0.6179,-0.6197,-0.62,-0.6206,-0.6228,-0.6229,-0.6218,-0.6219,-0.6219,-0.622,0,0,0,0,0,0,0,-0.6107,-0.6111,-0.615,-0.6145,-0.6147,-0.6149,-0.6153,-0.6167,-0.6183,-0.6169,-0.6169,-0.6173,-0.6198,-0.6205,-0.6207,-0.623,-0.6218,-0.6219,-0.622,-0.622,-0.6265,-0.6265,0,0,0,0,0,0,-0.6104,-0.611,-0.6149,-0.615,-0.6127,-0.615,-0.6154,-0.6163,-0.6183,-0.6186,-0.6173,-0.6173,-0.6203,-0.6205,-0.6208,-0.6226,-0.6219,-0.6221,-0.6221,-0.6264,-0.6265,-0.6265,0,0,0,0,0,0,-0.6103,-0.6107,-0.6147,-0.613,-0.6136,-0.6151,-0.6161,-0.6164,-0.6171,-0.6187,-0.619,-0.6177,-0.6202,-0.6206,-0.6222,-0.6227,-0.6221,-0.6223,-0.6264,-0.6264,-0.6265,-0.626,0,0,0,0,0,0,-0.6101,-0.6107,-0.6112,-0.613,-0.6137,-0.6161,-0.6161,-0.6164,-0.6173,-0.6174,-0.6191,-0.6194,-0.6203,-0.622,-0.6224,-0.6229,-0.6224,-0.6264,-0.6264,-0.6265,-0.626,-0.626,-0.6261,0,0,0,0,0,-0.6099,-0.6109,-0.6112,-0.6117,-0.6143,-0.6161,-0.6164,-0.6174,-0.6174,-0.6179,-0.6189,-0.6193,-0.6226,-0.6221,-0.6226,-0.6231,-0.6263,-0.6264,-0.6265,-0.626,-0.626,-0.6261,0,0,0,0,0,0,-0.609,-0.6112,-0.6115,-0.6132,-0.6144,-0.6162,-0.6169,-0.6174,-0.6187,-0.6187,-0.6199,-0.6203,-0.6218,-0.6226,-0.6221,-0.6246,-0.6245,-0.6246,-0.624,-0.624,-0.6241,-0.6238,-0.6225,0,0,0,0,0,-0.6091,-0.6103,-0.6121,-0.6133,-0.614,-0.6153,-0.6161,-0.6168,-0.6182,-0.6187,-0.6199,-0.6211,-0.6225,-0.6233,-0.6246,-0.6261,-0.6265,-0.6267,-0.6268,-0.6268,-0.6269,-0.6278,-0.6279,-0.6267,-0.6267,-0.6267,0,0,-0.609,-0.6104,-0.6111,-0.6132,-0.6143,-0.6155,-0.6158,-0.6171,-0.618,-0.6189,-0.6205,-0.6214,-0.6229,-0.6245,-0.6252,-0.6252,-0.6274,-0.6269,-0.6269,-0.627,-0.6279,-0.628,-0.6281,-0.6268,-0.6268,-0.6268,0,0,-0.6097,-0.6108,-0.612,-0.6131,-0.6147,-0.6156,-0.6159,-0.6177,-0.6183,-0.62,-0.6206,-0.6218,-0.624,-0.6251,-0.6259,-0.627,-0.6274,-0.6274,-0.6276,-0.6285,-0.6286,-0.6287,-0.6291,-0.6292,-0.6275,-0.6275,-0.6275,0,-0.6094,-0.6114,-0.6125,-0.6138,-0.6147,-0.6156,-0.6168,-0.6178,-0.6198,-0.6204,-0.6204,-0.6232,-0.6243,-0.6262,-0.6265,-0.6271,-0.6275,-0.6272,-0.6285,-0.6286,-0.6287,-0.6291,-0.6292,-0.6275,-0.6275,-0.6275,-0.6275,0,-0.611,-0.6124,-0.6131,-0.615,-0.6161,-0.6173,-0.6186,-0.6195,-0.6201,-0.621,-0.6227,-0.624,-0.6256,-0.6262,-0.6267,-0.6281,-0.6281,-0.6283,-0.6282,-0.6288,-0.6291,-0.6293,-0.6275,-0.6275,-0.6275,-0.6275,0,0,-0.6111,-0.6137,-0.6139,-0.6149,-0.6168,-0.6178,-0.6191,-0.6207,-0.6215,-0.6228,-0.6239,-0.6259,-0.6261,-0.627,-0.6278,-0.6285,-0.6294,-0.6286,-0.6287,-0.6287,-0.631,-0.6308,-0.6309,-0.6297,-0.6297,-0.6297,-0.6308,0,-0.6119,-0.6143,-0.6154,-0.6173,-0.6185,-0.6195,-0.6206,-0.6219,-0.6228,-0.624,-0.6251,-0.6264,-0.6266,-0.6272,-0.628,-0.6291,-0.6298,-0.629,-0.6307,-0.6307,-0.6302,-0.6311,-0.6309,-0.6319,-0.631,-0.631,-0.631,0,-0.6132,-0.6146,-0.6167,-0.6185,-0.619,-0.62,-0.6216,-0.6228,-0.6243,-0.6249,-0.626,-0.6267,-0.6282,-0.628,-0.63,-0.6294,-0.6302,-0.6309,-0.6309,-0.6311,-0.6309,-0.6313,-0.6322,-0.6323,-0.6313,-0.6313,-0.6312,0,-0.6131,-0.6155,-0.617,-0.6177,-0.6199,-0.6206,-0.6215,-0.623,-0.6239,-0.6253,-0.6259,-0.6275,-0.6283,-0.6295,-0.6306,-0.6304,-0.6325,-0.6324,-0.633,-0.633,-0.6333,-0.6333,-0.6344,-0.6339,-0.6339,-0.6339,-0.6339,0,-0.6139,-0.6151,-0.617,-0.6179,-0.6193,-0.6205,-0.6218,-0.6228,-0.6242,-0.6253,-0.6262,-0.6273,-0.6287,-0.6299,-0.6308,-0.6323,-0.6327,-0.6332,-0.6335,-0.6331,-0.6331,-0.6336,-0.6336,-0.6339,-0.6339,-0.6339,-0.6339,0,-0.6139,-0.6152,-0.617,-0.6189,-0.6194,-0.6203,-0.622,-0.6229,-0.6239,-0.6254,-0.6258,-0.6274,-0.6289,-0.6301,-0.6321,-0.6327,-0.6343,-0.6345,-0.6337,-0.6338,-0.6343,-0.6343,-0.6358,-0.636,-0.6354,-0.6354,-0.6354,0,-0.6143,-0.6153,-0.6173,-0.6182,-0.6191,-0.6205,-0.6214,-0.6227,-0.6237,-0.6255,-0.6263,-0.6278,-0.6292,-0.6315,-0.6329,-0.6344,-0.6347,-0.6351,-0.6349,-0.6346,-0.6347,-0.6346,-0.6347,-0.6351,-0.6351,-0.6351,-0.6351,0,-0.615,-0.6156,-0.6169,-0.6185,-0.6197,-0.621,-0.6223,-0.623,-0.6245,-0.6256,-0.6271,-0.6282,-0.6302,-0.6318,-0.6335,-0.6344,-0.635,-0.6352,-0.6354,-0.635,-0.6345,-0.6348,-0.6337,-0.6351,-0.6351,-0.6351,-0.6351,-0.6351,-0.6152,-0.6161,-0.6177,-0.6192,-0.6203,-0.6216,-0.6226,-0.6237,-0.6251,-0.6269,-0.6276,-0.6292,-0.6307,-0.633,-0.634,-0.6353,-0.6354,-0.6357,-0.6357,-0.6358,-0.6357,-0.6344,-0.6356,-0.6356,-0.6356,-0.6356,-0.6356,0,-0.6158,-0.6169,-0.6183,-0.6202,-0.6213,-0.6219,-0.6234,-0.6243,-0.6258,-0.6271,-0.6285,-0.6303,-0.6318,-0.6333,-0.6349,-0.6357,-0.636,-0.636,-0.636,-0.6362,-0.6356,-0.6352,-0.6358,-0.6358,-0.6358,-0.6358,-0.6358,-0.6358,-0.6163,-0.6178,-0.6187,-0.6208,-0.6219,-0.6235,-0.6243,-0.6255,-0.6266,-0.6286,-0.6299,-0.6309,-0.6323,-0.6341,-0.6355,-0.6359,-0.6364,-0.6364,-0.6369,-0.6363,-0.6362,-0.6362,-0.6359,-0.6365,-0.6365,-0.6374,-0.6374,-0.6374]}]]